Location: Bolzano
(46.5170°N, 11.3670°E)
Time: 06:00:13
(UTC+01:00)

ISS - Pass Details

Date: 03 December 2021
Orbit: 413 x 423 km, 51.6° (Epoch: 18 January)

Event Time Altitude Azimuth Distance (km) Brightness Sun altitude
Rises 18:38:51 0° 296° (WNW) 2,380 0.9 -21.7°
Reaches altitude 10° 18:40:58 10° 295° (WNW) 1,511 -0.2 -22.0°
Enters shadow 18:43:42 55° 285° (WNW) 515 -3.1 -22.5°
